This is the latest recevied weather packets stored in our database for station/object SQ9SMC-13. If no packets are shown the sender has not sent any weather packets the latest 10 day(s).
| Time | Temp. | Humidity | Pressure | Rain* | Wind** | Luminosity | Snow |
|---|---|---|---|---|---|---|---|
| 1777313103 | 8.89° C | 49% | 1022.7 hPa | 0 mm | - | 1 W/m² | - |
| 1777312805 | 9.44° C | 46% | 1022.8 hPa | 0 mm | - | 1 W/m² | - |
| 1777312503 | 10° C | 44% | 1022.8 hPa | 0 mm | - | 3 W/m² | - |
| 1777312204 | 10.56° C | 43% | 1022.7 hPa | 0 mm | - | 4 W/m² | - |
| 1777311903 | 10.56° C | 42% | 1022.7 hPa | 0 mm | - | 6 W/m² | - |
| 1777311603 | 10.56° C | 41% | 1022.6 hPa | 0 mm | - | 9 W/m² | - |
| 1777311303 | 11.11° C | 41% | 1022.7 hPa | 0 mm | - | 11 W/m² | - |
| 1777311004 | 11.67° C | 41% | 1022.6 hPa | 0 mm | - | 14 W/m² | - |
| 1777310702 | 11.67° C | 39% | 1022.7 hPa | 0 mm | - | 16 W/m² | - |
| 1777310404 | 12.22° C | 38% | 1022.6 hPa | 0 mm | - | 18 W/m² | - |
| 1777310103 | 12.22° C | 38% | 1022.8 hPa | 0 mm | - | 22 W/m² | - |
| 1777309803 | 12.22° C | 38% | 1022.7 hPa | 0 mm | - | 26 W/m² | - |
| 1777309504 | 12.78° C | 38% | 1022.8 hPa | 0 mm | - | 27 W/m² | - |
| 1777309202 | 12.78° C | 36% | 1022.4 hPa | 0 mm | - | 32 W/m² | - |
| 1777308903 | 12.78° C | 36% | 1022.5 hPa | 0 mm | - | 32 W/m² | - |
| 1777308604 | 12.78° C | 36% | 1022.6 hPa | 0 mm | - | 35 W/m² | - |
| 1777308303 | 12.78° C | 35% | 1022.6 hPa | 0 mm | - | 36 W/m² | - |
| 1777308003 | 13.33° C | 36% | 1022.4 hPa | 0 mm | - | 43 W/m² | - |
| 1777307703 | 13.33° C | 34% | 1022.5 hPa | 0 mm | - | 50 W/m² | - |
| 1777307403 | 13.33° C | 34% | 1022.6 hPa | 0 mm | - | 59 W/m² | - |
| 1777307102 | 13.89° C | 35% | 1022.5 hPa | 0 mm | - | 67 W/m² | - |
| 1777306805 | 13.89° C | 34% | 1022.4 hPa | 0 mm | - | 57 W/m² | - |
| 1777306503 | 13.89° C | 34% | 1022.7 hPa | 0 mm | - | 59 W/m² | - |
| 1777306203 | 13.89° C | 34% | 1022.6 hPa | 0 mm | - | 97 W/m² | - |
| 1777305906 | 13.89° C | 35% | 1022.6 hPa | 0 mm | - | 113 W/m² | - |
* Rain latest hour (hover to see other rain measurements)
** Current wind speed in m/s (hover to see current wind gust speed)